Location: site
(53.0000°N, 23.0500°E)
Time: 16:28:25
(UTC+01:00)

SAOCOM 1-A - Pass Details

Date: 18 January 2020
Orbit: 621 x 623 km, 97.9° (Epoch: 25 February)

Event Time Altitude Azimuth Distance (km) Brightness Sun altitude
Rises 05:49:12 0° 202° (SSW) 2,895 ? -14.7°
Reaches altitude 10° 05:51:50 10° 219° (SW) 1,994 ? -14.3°
Maximum altitude 05:55:10 21° 269° (W) 1,403 ? -13.9°
Enters shadow 05:55:21 21° 273° (W) 1,406 ? -13.8°
